• In Czech Republic
  • List of Countries
  • For 7 days
  • Water Temperature
  • Satellite Maps
  • Weather Map
  • Weather Widgets
  • user-avatar
    Login

    Hourly Weather Oupeye

    Today, 19 September, Wednesday

    Time Temperature Precipitation Wind Pressure Humidity
    00:00 +18°C° 0 mm 1 mps 755 mmHg 89%
    01:00 +18°C° 0 mm 1 mps 755 mmHg 90%
    02:00 +17°C° 0 mm 2 mps 755 mmHg 91%
    03:00 +16°C° 0 mm 2 mps 755 mmHg 91%
    04:00 +17°C° 0 mm 2 mps 755 mmHg 90%
    05:00 +17°C° 0 mm 2 mps 755 mmHg 89%
    06:00 +17°C° 0 mm 3 mps 755 mmHg 85%
    07:00 +19°C° 0 mm 4 mps 755 mmHg 79%
    08:00 +21°C° 0 mm 5 mps 755 mmHg 73%
    09:00 +23°C° 0 mm 5 mps 755 mmHg 67%
    10:00 +24°C° 0 mm 6 mps 755 mmHg 63%
    11:00 +26°C° 0 mm 6 mps 755 mmHg 59%
    12:00 +27°C° 0 mm 6 mps 755 mmHg 56%
    13:00 +27°C° 0 mm 6 mps 755 mmHg 55%
    14:00 +27°C° 0 mm 6 mps 755 mmHg 54%
    15:00 +27°C° 0 mm 5 mps 754 mmHg 54%
    16:00 +25°C° 0 mm 5 mps 754 mmHg 60%
    17:00 +22°C° 0 mm 4 mps 755 mmHg 67%
    18:00 +21°C° 0 mm 3 mps 755 mmHg 73%
    19:00 +20°C° 0 mm 3 mps 755 mmHg 77%
    20:00 +19°C° 0 mm 2 mps 755 mmHg 80%
    21:00 +18°C° 0 mm 2 mps 756 mmHg 83%
    22:00 +18°C° 0 mm 2 mps 756 mmHg 84%
    23:00 +17°C° 0 mm 2 mps 756 mmHg 85%

    Tomorrow, 20 September, Thursday

    Time Temperature Precipitation Wind Pressure Humidity
    00:00 +17°C° 0 mm 2 mps 756 mmHg 86%
    01:00 +16°C° 0 mm 2 mps 756 mmHg 88%
    02:00 +16°C° 0 mm 2 mps 756 mmHg 89%
    03:00 +16°C° 0 mm 2 mps 756 mmHg 91%
    04:00 +16°C° 0 mm 2 mps 756 mmHg 91%
    05:00 +16°C° 0 mm 3 mps 756 mmHg 91%
    06:00 +16°C° 0 mm 3 mps 756 mmHg 91%
    07:00 +18°C° 0 mm 3 mps 756 mmHg 83%
    08:00 +20°C° 0 mm 4 mps 756 mmHg 75%
    09:00 +22°C° 0 mm 5 mps 756 mmHg 67%
    10:00 +23°C° 0 mm 5 mps 755 mmHg 63%
    11:00 +25°C° 0 mm 5 mps 755 mmHg 59%
    12:00 +26°C° 0 mm 5 mps 754 mmHg 55%
    13:00 +26°C° 0 mm 5 mps 754 mmHg 54%
    14:00 +26°C° 0 mm 5 mps 754 mmHg 53%
    15:00 +26°C° 0 mm 5 mps 753 mmHg 53%
    16:00 +25°C° 0 mm 4 mps 753 mmHg 59%
    17:00 +22°C° 0 mm 3 mps 752 mmHg 65%
    18:00 +20°C° 0 mm 3 mps 751 mmHg 71%
    19:00 +20°C° 0 mm 3 mps 751 mmHg 70%
    20:00 +20°C° 0 mm 3 mps 751 mmHg 69%
    21:00 +20°C° 0 mm 4 mps 750 mmHg 68%
    22:00 +21°C° 0 mm 4 mps 750 mmHg 65%
    23:00 +21°C° 0 mm 5 mps 749 mmHg 62%

    Day after tomorrow, 21 September, Friday

    Time Temperature Precipitation Wind Pressure Humidity
    00:00 +21°C° 0 mm 5 mps 749 mmHg 59%
    01:00 +21°C° 0 mm 6 mps 748 mmHg 59%
    02:00 +21°C° 0 mm 6 mps 748 mmHg 58%
    03:00 +20°C° 0 mm 6 mps 747 mmHg 57%
    04:00 +20°C° 0.1 mm 7 mps 747 mmHg 59%
    05:00 +20°C° 0.1 mm 7 mps 747 mmHg 62%
    06:00 +20°C° 0.1 mm 7 mps 747 mmHg 64%
    07:00 +17°C° 1.6 mm 7 mps 748 mmHg 70%
    08:00 +16°C° 1.6 mm 7 mps 749 mmHg 75%
    09:00 +14°C° 1.6 mm 6 mps 749 mmHg 81%
    10:00 +15°C° 0.1 mm 6 mps 750 mmHg 71%
    11:00 +15°C° 0.1 mm 6 mps 751 mmHg 62%
    12:00 +16°C° 0.1 mm 6 mps 752 mmHg 52%
    13:00 +16°C° 0 mm 6 mps 752 mmHg 51%
    14:00 +16°C° 0 mm 6 mps 752 mmHg 50%
    15:00 +16°C° 0 mm 6 mps 752 mmHg 49%
    16:00 +15°C° 0 mm 6 mps 753 mmHg 52%
    17:00 +14°C° 0 mm 5 mps 753 mmHg 56%
    18:00 +13°C° 0 mm 4 mps 754 mmHg 59%
    19:00 +13°C° 0 mm 4 mps 754 mmHg 61%
    20:00 +12°C° 0 mm 5 mps 755 mmHg 62%
    21:00 +12°C° 0 mm 5 mps 755 mmHg 64%
    22:00 +10°C° 0 mm 5 mps 755 mmHg 66%
    23:00 +10°C° 0 mm 5 mps 755 mmHg 69%

    22 September, Saturday

    Time Temperature Precipitation Wind Pressure Humidity
    00:00 +11°C° 0 mm 4 mps 756 mmHg 72%
    01:00 +10°C° 0 mm 4 mps 756 mmHg 74%
    02:00 +10°C° 0 mm 4 mps 756 mmHg 77%
    03:00 +10°C° 0 mm 4 mps 756 mmHg 79%
    04:00 +8°C° 0 mm 4 mps 757 mmHg 81%
    05:00 +8°C° 0 mm 4 mps 757 mmHg 83%
    06:00 +8°C° 0 mm 4 mps 757 mmHg 84%
    07:00 +11°C° 0 mm 4 mps 757 mmHg 76%
    08:00 +12°C° 0 mm 5 mps 757 mmHg 68%
    09:00 +14°C° 0 mm 5 mps 758 mmHg 59%
    10:00 +15°C° 0.1 mm 5 mps 758 mmHg 57%
    11:00 +15°C° 0.1 mm 5 mps 758 mmHg 54%
    12:00 +16°C° 0.1 mm 6 mps 758 mmHg 52%
    13:00 +16°C° 0.1 mm 5 mps 758 mmHg 51%
    14:00 +16°C° 0.1 mm 5 mps 758 mmHg 51%
    15:00 +16°C° 0.1 mm 5 mps 757 mmHg 50%
    16:00 +15°C° 0 mm 4 mps 758 mmHg 56%
    17:00 +13°C° 0 mm 3 mps 758 mmHg 62%
    18:00 +13°C° 0 mm 1 mps 758 mmHg 68%
    19:00 +12°C° 0 mm 1 mps 758 mmHg 69%
    20:00 +12°C° 0 mm 1 mps 758 mmHg 71%
    21:00 +11°C° 0 mm 1 mps 758 mmHg 72%
    22:00 +12°C° 0 mm 1 mps 757 mmHg 72%
    23:00 +12°C° 0 mm 1 mps 756 mmHg 72%

    23 September, Sunday

    Time Temperature Precipitation Wind Pressure Humidity
    00:00 +12°C° 0 mm 2 mps 756 mmHg 71%
    01:00 +12°C° 0.4 mm 2 mps 755 mmHg 76%
    02:00 +10°C° 0.4 mm 3 mps 754 mmHg 81%
    03:00 +10°C° 0.4 mm 3 mps 753 mmHg 86%
    04:00 +10°C° 0.2 mm 4 mps 752 mmHg 86%
    05:00 +9°C° 0.2 mm 5 mps 750 mmHg 85%
    06:00 +10°C° 0.2 mm 6 mps 749 mmHg 84%
    07:00 +11°C° 0.3 mm 7 mps 747 mmHg 82%
    08:00 +11°C° 0.3 mm 8 mps 745 mmHg 79%
    09:00 +12°C° 0.3 mm 9 mps 743 mmHg 76%
    10:00 +15°C° 0.4 mm 9 mps 742 mmHg 77%
    11:00 +16°C° 0.4 mm 9 mps 740 mmHg 78%
    12:00 +18°C° 0.4 mm 10 mps 738 mmHg 78%
    13:00 +18°C° 1.3 mm 10 mps 737 mmHg 78%
    14:00 +18°C° 1.3 mm 9 mps 736 mmHg 79%
    15:00 +18°C° 1.3 mm 9 mps 735 mmHg 79%
    16:00 +17°C° 0 mm 9 mps 735 mmHg 72%
    17:00 +15°C° 0 mm 9 mps 735 mmHg 66%
    18:00 +13°C° 0 mm 9 mps 734 mmHg 60%
    19:00 +12°C° 0.2 mm 10 mps 734 mmHg 65%
    20:00 +12°C° 0.2 mm 10 mps 733 mmHg 69%
    21:00 +11°C° 0.2 mm 10 mps 733 mmHg 74%
    22:00 +11°C° 0.8 mm 9 mps 733 mmHg 79%
    23:00 +11°C° 0.8 mm 8 mps 734 mmHg 85%

    24 September, Monday

    Time Temperature Precipitation Wind Pressure Humidity
    00:00 +11°C° 0.8 mm 7 mps 734 mmHg 90%
    01:00 +10°C° 0.9 mm 9 mps 736 mmHg 88%
    02:00 +9°C° 0.9 mm 10 mps 738 mmHg 87%
    03:00 +8°C° 0.9 mm 11 mps 740 mmHg 85%
    04:00 +8°C° 0.2 mm 10 mps 743 mmHg 84%
    05:00 +8°C° 0.2 mm 9 mps 745 mmHg 82%
    06:00 +8°C° 0.2 mm 9 mps 748 mmHg 81%
    07:00 +10°C° 0.2 mm 9 mps 749 mmHg 77%
    08:00 +10°C° 0.2 mm 9 mps 751 mmHg 74%
    09:00 +11°C° 0.2 mm 9 mps 752 mmHg 70%
    10:00 +11°C° 0.4 mm 9 mps 753 mmHg 69%
    11:00 +11°C° 0.4 mm 9 mps 754 mmHg 67%
    12:00 +12°C° 0.4 mm 9 mps 755 mmHg 66%
    13:00 +11°C° 0.4 mm 8 mps 756 mmHg 67%
    14:00 +11°C° 0.4 mm 8 mps 757 mmHg 68%
    15:00 +11°C° 0.4 mm 7 mps 758 mmHg 68%
    16:00 +10°C° 0.2 mm 6 mps 759 mmHg 72%
    17:00 +9°C° 0.2 mm 5 mps 760 mmHg 75%
    18:00 +8°C° 0.2 mm 4 mps 760 mmHg 79%
    19:00 +7°C° 0.2 mm 4 mps 761 mmHg 80%
    20:00 +7°C° 0.2 mm 4 mps 762 mmHg 81%
    21:00 +7°C° 0.2 mm 4 mps 763 mmHg 82%
    22:00 +8°C° 0.1 mm 3 mps 763 mmHg 84%
    23:00 +7°C° 0.1 mm 3 mps 763 mmHg 85%
    Show more